,

(GMT )
Al Udeid

Weather History for KQIR - October, 2011

Change the Weather History Date:

Friday, October 14, 2011

  Actual Average Record
Temperature  
Mean Temperature 86 °F -  
Max Temperature 97 °F - - ()
Min Temperature 76 °F - - ()
Cooling Degree Days 22    
Growing Degree Days 36 (Base 50)    
Moisture  
Dew Point 72 °F    
Average Humidity 65    
Maximum Humidity 99    
Minimum Humidity 30    
Precipitation  
Precipitation 0.00 in - - ()
Sea Level Pressure  
Sea Level Pressure 29.92 in    
Wind  
Wind Speed 5 mph ()    
Max Wind Speed 9 mph    
Max Gust Speed -    
Visibility 6.2 miles    
Events      
Averages and records for this station are not official NWS values.
T = Trace of Precipitation, MM = Missing Value Source: Averaged Metar Reports

Daily Weather History Graph

Daily Weather History Graph

Search for Another Location

Airport or City:

Trip Planner

Search our weather history database for the weather conditions in past years. The results will help you decide how hot, cold, wet, or windy it might be!

Date:

Astronomy

Oct. 14, 2011 Rise Set
Actual Time 5:32 AM +03 5:09 PM +03
Civil Twilight 5:09 AM +03 5:32 PM +03
Nautical Twilight 4:42 AM +03 5:58 PM +03
Astronomical Twilight 4:16 AM +03 6:25 PM +03
Moon 6:27 PM +03 (10/14) 7:20 AM +03 (10/14)
Length of Visible Light 12h 22m
Length of Day
11h 36m
Waning Gibbous, 95% of the Moon is Illuminated
Oct 14
Waning Gibbous
Oct 20
Last Quarter
Oct 26
New
Nov 2
First Quarter
Nov 10
Full

Hourly Weather History & Observations

Time (+03) Temp. Heat Index Dew Point Humidity Pressure Visibility Wind Dir Wind Speed Gust Speed Precip Events Conditions
12:55 AM 80.2 °F 85.0 °F 74.1 °F 82% 29.90 in 6.2 mi North 3.5 mph - N/A   Clear
1:55 AM 77.0 °F - 73.6 °F 89% 29.90 in 6.2 mi Calm Calm - N/A   Clear
2:55 AM 76.6 °F - 74.1 °F 92% 29.89 in 6.2 mi NNW 5.8 mph - N/A   Clear
3:55 AM 76.5 °F - 74.8 °F 95% 29.90 in 6.2 mi NW 3.5 mph - N/A   Clear
4:55 AM 76.6 °F - 76.3 °F 99% 29.92 in 6.2 mi NNW 5.8 mph - N/A   Clear
5:55 AM 77.9 °F - 77.5 °F 99% 29.94 in 6.2 mi North 6.9 mph - N/A   Clear
6:55 AM 80.4 °F 86.8 °F 77.4 °F 90% 29.95 in 6.2 mi North 5.8 mph - N/A   Clear
7:55 AM 84.0 °F 94.4 °F 77.7 °F 81% 29.96 in 6.2 mi North 8.1 mph - N/A   Clear
8:55 AM 87.4 °F 99.2 °F 77.2 °F 71% 29.97 in 6.2 mi NNE 4.6 mph - N/A   Clear
9:55 AM 90.5 °F 99.7 °F 73.8 °F 58% 29.96 in 6.2 mi East 6.9 mph - N/A   Clear
10:55 AM 91.4 °F 100.7 °F 73.8 °F 56% 29.94 in 6.2 mi ENE 3.5 mph - N/A   Clear
11:55 AM 94.8 °F 102.1 °F 71.1 °F 46% 29.92 in 6.2 mi Variable 3.5 mph - N/A   Clear
12:55 PM 95.2 °F 98.8 °F 66.9 °F 39% 29.90 in 6.2 mi WNW 3.5 mph - N/A   Partly Cloudy
1:55 PM 97.0 °F 98.3 °F 62.2 °F 32% 29.89 in 6.2 mi WNW 6.9 mph - N/A   Clear
2:55 PM 97.0 °F 97.4 °F 60.6 °F 30% 29.88 in 6.2 mi NW 5.8 mph - N/A   Clear
3:55 PM 95.7 °F 96.3 °F 61.5 °F 32% 29.88 in 6.2 mi Variable 3.5 mph - N/A   Clear
4:55 PM 91.9 °F 97.4 °F 69.4 °F 48% 29.89 in 6.2 mi East 8.1 mph - N/A   Clear
5:55 PM 90.1 °F 94.9 °F 69.1 °F 50% 29.91 in 6.2 mi ENE 9.2 mph - N/A   Clear
6:55 PM 88.0 °F 93.8 °F 70.9 °F 57% 29.92 in 6.2 mi NE 6.9 mph - N/A   Clear
7:55 PM 86.7 °F 92.1 °F 71.1 °F 59% 29.94 in 6.2 mi NE 6.9 mph - N/A   Clear
8:55 PM 85.8 °F 90.8 °F 70.7 °F 60% 29.94 in 6.2 mi NNE 6.9 mph - N/A   Clear
9:55 PM 84.6 °F 89.4 °F 70.7 °F 63% 29.94 in 6.2 mi NNE 6.9 mph - N/A   Clear
10:55 PM 83.3 °F 88.2 °F 71.4 °F 67% 29.93 in 6.2 mi North 9.2 mph - N/A   Clear
11:55 PM 82.2 °F 87.1 °F 72.1 °F 71% 29.92 in 6.2 mi North 9.2 mph - N/A   Clear